Location: Wildlife_Club
(35.6000°N, 81.4330°W)
Time: 23:41:26
(UTC-04:00)

Vanguard 2 Rocket - Pass Details

Date: 26 June 2019
Orbit: 554 x 3326 km, 32.9° (Epoch: 12 October)

Event Time Altitude Azimuth Distance (km) Brightness Sun altitude
Rises 23:16:21 0° 263° (W) 3,671 10.4 -23.3°
Reaches altitude 10° 23:18:28 10° 261° (W) 2,957 9.8 -23.5°
Maximum altitude 23:25:54 77° 177° (S) 1,636 7.9 -24.3°
Drops below altitude 10° 23:39:39 10° 94° (E) 5,189 10.4 -25.7°
Sets 23:44:37 0° 94° (E) 6,586 11.0 -26.1°
